This demonstration page uses our WeatherBlox Daily Observations layout. Learn more.

Left ArrowRight Arrow

41.55636, -103.73856

Hourly Observations for June 29, 2015

Temp ( °F °C ) Dew Point ( °F °C ) Humidity (%) Winds ( mph kmh ) Pressure ( in mb ) Visibility ( mi km ) Precip ( " mm )
12:53 am 00:53 Partly Cloudy 67 19.4 57 13.9 71 71 Calm 29.97 1015 10 16.0934 0 0
1:53 am 01:53 Mostly Clear 67 19.4 56 13.3 68 68 E 6 9 29.98 1015 10 16.0934 0 0
2:53 am 02:53 Mostly Cloudy 71 21.7 54 12.2 55 55 SE 10 17 29.96 1015 10 16.0934 0 0
3:53 am 03:53 Mostly Clear 67 19.4 56 13.3 68 68 Calm 29.96 1015 10 16.0934 0 0
4:53 am 04:53 Clear 63 17.2 56 13.3 78 78 ESE 7 11 29.96 1014 10 16.0934 0 0
5:53 am 05:53 Sunny 61 16.1 55 12.8 81 81 Calm 29.98 1015 10 16.0934 0 0
6:53 am 06:53 Sunny 67 19.4 57 13.9 71 71 Calm 30.01 1016 10 16.0934 0 0
7:53 am 07:53 Mostly Sunny 74 23.3 57 13.9 56 56 NW 8 13 30.05 1018 10 16.0934 0 0
8:53 am 08:53 Sunny 74 23.3 58 14.4 57 57 W 6 9 30.04 1017 10 16.0934 0 0
9:53 am 09:53 Partly Cloudy 75 23.9 56 13.3 52 52 SSW 5 7 30.05 1018 10 16.0934 0 0
10:53 am 10:53 Sunny 81 27.2 56 13.3 42 42 Calm 30.02 1017 10 16.0934 0 0
11:53 am 11:53 Sunny 85 29.4 57 13.9 39 39 VRB 5 7 30.01 1016 10 16.0934 0 0
12:53 pm 12:53 Sunny 87 30.6 53 11.7 31 31 VRB 3 6 29.99 1016 10 16.0934 0 0
1:53 pm 13:53 Sunny 89 31.7 55 12.8 31 31 undefined N/A 29.98 1015 10 16.0934 0 0
2:53 pm 14:53 Sunny 90 32.2 51 10.6 26 26 Calm 29.95 1014 10 16.0934 0 0
3:53 pm 15:53 Sunny 93 33.9 51 10.6 24 24 VRB 3 6 29.93 1014 10 16.0934 0 0
4:53 pm 16:53 Mostly Sunny 92 33.3 53 11.7 27 27 VRB 5 7 29.93 1014 10 16.0934 0 0
5:53 pm 17:53 Mostly Cloudy 87 30.6 54 12.2 32 32 ESE 13 20 29.94 1014 10 16.0934 0 0
6:53 pm 18:53 Mostly Sunny 86 30 56 13.3 36 36 SE 9 15 29.93 1014 10 16.0934 0 0
7:53 pm 19:53 Sunny 80 26.7 56 13.3 44 44 E 7 11 29.94 1014 10 16.0934 0 0
8:53 pm 20:53 Clear 73 22.8 56 13.3 55 55 ENE 6 9 29.96 1014 10 16.0934 0 0
9:53 pm 21:53 Clear 73 22.8 56 13.3 55 55 S 5 7 29.98 1015 10 16.0934 0 0
10:53 pm 22:53 Clear 68 20 57 13.9 68 68 E 7 11 29.98 1015 10 16.0934 0 0
11:53 pm 23:53 Clear 67 19.4 56 13.3 68 68 Calm 29.97 1015 10 16.0934 0 0

Powered by AerisWeather